Back to catalog

COSMOS 514

AliveMilitaryPO
NORAD 6148·PAYLOAD·🇷🇺 Russia

Launched Aug 16, 1972 from Plesetsk Cosmodrome

Loading…

Next Passes (next 24 hours)

TLE

FreshSource: Space-Track

Epoch: Sep 14, 2026, 09:55 UTC

1 06148U 72062A   26257.41373345  .00000034  00000-0  17426-4 0  9999
2 06148  82.9654 229.4188 0008541 254.7951 269.5127 13.82057953725863

Track COSMOS 514 in real time with AllMySat

Download on the App Store